This is the latest recevied weather packets stored in our database for station/object KC3BHK-2. If no packets are shown the sender has not sent any weather packets the latest 10 day(s).
| Time | Temp. | Humidity | Pressure | Rain* | Wind** | Luminosity | Snow |
|---|---|---|---|---|---|---|---|
| 1777943510 | 20° C | - | - | 0 mm | 3.13 m/s, 162° | - | - |
| 1777943205 | 20.56° C | - | - | 0 mm | 2.24 m/s, 158° | - | - |
| 1777942901 | 20.56° C | - | - | 0 mm | 4.02 m/s, 201° | - | - |
| 1777942596 | 20° C | - | - | 0 mm | 3.13 m/s, 177° | - | - |
| 1777942291 | 20.56° C | - | - | 0 mm | 1.79 m/s, 152° | - | - |
| 1777941987 | 21.11° C | - | - | 0 mm | 3.58 m/s, 146° | - | - |
| 1777941679 | 20.56° C | - | - | 0 mm | 2.24 m/s, 163° | - | - |
| 1777941374 | 20.56° C | - | - | 0 mm | 4.02 m/s, 160° | - | - |
| 1777941070 | 20.56° C | - | - | 0 mm | 4.47 m/s, 180° | - | - |
| 1777940765 | 21.11° C | - | - | 0 mm | 3.58 m/s, 174° | - | - |
| 1777940461 | 21.11° C | - | - | 0 mm | 1.79 m/s, 143° | - | - |
| 1777940156 | 21.67° C | - | - | 0 mm | 2.24 m/s, 158° | - | - |
| 1777939849 | 21.11° C | - | - | 0 mm | 1.79 m/s, 170° | - | - |
| 1777939544 | 21.11° C | - | - | 0 mm | 1.79 m/s, 170° | - | - |
| 1777939239 | 21.67° C | - | - | 0 mm | 2.68 m/s, 143° | - | - |
| 1777938935 | 21.67° C | - | - | 0 mm | 3.58 m/s, 153° | - | - |
| 1777938630 | 21.11° C | - | - | 0 mm | 2.24 m/s, 129° | - | - |
| 1777938325 | 21.11° C | - | - | 0 mm | 2.68 m/s, 204° | - | - |
| 1777938018 | 21.67° C | - | - | 0 mm | 2.68 m/s, 165° | - | - |
| 1777937713 | 22.22° C | - | - | 0 mm | 3.58 m/s, 195° | - | - |
| 1777937409 | 21.11° C | - | - | 0 mm | 4.02 m/s, 162° | - | - |
| 1777937104 | 22.22° C | - | - | 0 mm | 4.02 m/s, 186° | - | - |
| 1777936799 | 22.78° C | - | - | 0 mm | 3.58 m/s, 127° | - | - |
| 1777936495 | 22.22° C | - | - | 0 mm | 3.58 m/s, 153° | - | - |
| 1777936186 | 22.22° C | - | - | 0 mm | 3.58 m/s, 145° | - | - |
* Rain latest hour (hover to see other rain measurements)
** Current wind speed in m/s (hover to see current wind gust speed)